Time,TemperatureF,DewpointF,PressureIn,WindDirection,WindDirectionDegrees,WindSpeedMPH,WindSpeedGustMPH,Humidity,HourlyPrecipIn,Conditions,Clouds,dailyrainin,SolarRadiationWatts/m^2,SoftwareType,DateUTC
2013-04-09 00:03:00,60.0,47.0,-100.00,East,89,2.0,4.0,61,0.00,,,0.00,0.000000,,2013-04-09 04:03:00,
2013-04-09 00:33:00,57.0,47.0,-100.00,NE,51,3.0,7.0,69,0.00,,,0.00,0.000000,,2013-04-09 04:33:00,
2013-04-09 00:43:00,57.0,47.0,-100.00,NE,51,3.0,7.0,69,0.00,,,0.00,0.000000,,2013-04-09 04:43:00,
2013-04-09 00:53:00,57.0,47.0,-100.00,NE,51,3.0,7.0,69,0.00,,,0.00,0.000000,,2013-04-09 04:53:00,
2013-04-09 01:02:00,57.0,47.0,-100.00,NE,51,3.0,7.0,69,0.00,,,0.00,0.000000,,2013-04-09 05:02:00,
2013-04-09 01:32:00,55.0,47.0,-100.00,ENE,66,4.0,7.0,75,0.00,,,0.00,0.000000,,2013-04-09 05:32:00,
2013-04-09 01:43:00,55.0,47.0,-100.00,ENE,66,4.0,7.0,75,0.00,,,0.00,0.000000,,2013-04-09 05:43:00,
2013-04-09 01:52:00,55.0,47.0,-100.00,ENE,66,4.0,7.0,75,0.00,,,0.00,0.000000,,2013-04-09 05:52:00,
2013-04-09 02:02:00,55.0,47.0,-100.00,ENE,66,4.0,7.0,75,0.00,,,0.00,0.000000,,2013-04-09 06:02:00,
2013-04-09 02:32:00,54.0,47.0,-100.00,ENE,71,4.0,7.0,78,0.00,,,0.00,0.000000,,2013-04-09 06:32:00,
2013-04-09 02:42:00,54.0,47.0,-100.00,ENE,71,4.0,7.0,78,0.00,,,0.00,0.000000,,2013-04-09 06:42:00,
2013-04-09 02:52:00,54.0,47.0,-100.00,ENE,71,4.0,7.0,78,0.00,,,0.00,0.000000,,2013-04-09 06:52:00,
2013-04-09 03:02:00,54.0,47.0,-100.00,ENE,71,4.0,7.0,78,0.00,,,0.00,0.000000,,2013-04-09 07:02:00,
2013-04-09 03:32:00,53.0,48.0,-100.00,East,80,4.0,8.0,82,0.00,,,-99.99,0.000000,,2013-04-09 07:32:00,
2013-04-09 03:42:00,53.0,48.0,-100.00,East,80,4.0,8.0,82,0.00,,,-99.99,0.000000,,2013-04-09 07:42:00,
2013-04-09 03:53:00,53.0,48.0,-100.00,East,80,4.0,8.0,82,0.00,,,-99.99,0.000000,,2013-04-09 07:53:00,
2013-04-09 04:03:00,53.0,48.0,-100.00,East,80,4.0,8.0,82,0.00,,,-99.99,0.000000,,2013-04-09 08:03:00,
2013-04-09 04:32:00,51.0,47.0,-100.00,East,92,2.0,7.0,87,0.00,,,0.00,0.000000,,2013-04-09 08:32:00,
2013-04-09 04:42:00,51.0,47.0,-100.00,East,92,2.0,7.0,87,0.00,,,0.00,0.000000,,2013-04-09 08:42:00,
2013-04-09 04:52:00,51.0,47.0,-100.00,East,92,2.0,7.0,87,0.00,,,0.00,0.000000,,2013-04-09 08:52:00,
2013-04-09 05:02:00,51.0,47.0,-100.00,East,92,2.0,7.0,87,0.00,,,0.00,0.000000,,2013-04-09 09:02:00,
2013-04-09 05:33:00,50.0,47.0,-100.00,East,84,3.0,6.0,91,0.00,,,0.00,0.000000,,2013-04-09 09:33:00,
2013-04-09 05:44:00,50.0,47.0,-100.00,East,84,3.0,6.0,91,0.00,,,0.00,0.000000,,2013-04-09 09:44:00,
2013-04-09 05:53:00,50.0,47.0,-100.00,East,84,3.0,6.0,91,0.00,,,0.00,0.000000,,2013-04-09 09:53:00,
2013-04-09 06:04:00,50.0,47.0,-100.00,East,84,3.0,6.0,91,0.00,,,0.00,0.000000,,2013-04-09 10:04:00,
2013-04-09 06:33:00,51.0,48.0,-100.00,East,83,2.0,4.0,90,0.00,,,0.00,0.000000,,2013-04-09 10:33:00,
2013-04-09 06:43:00,51.0,48.0,-100.00,East,83,2.0,4.0,90,0.00,,,0.00,0.000000,,2013-04-09 10:43:00,
2013-04-09 06:54:00,51.0,48.0,-100.00,East,83,2.0,4.0,90,0.00,,,0.00,0.000000,,2013-04-09 10:54:00,
2013-04-09 07:02:00,51.0,48.0,-100.00,East,83,2.0,4.0,90,0.00,,,0.00,0.000000,,2013-04-09 11:02:00,
2013-04-09 07:32:00,49.0,47.0,-100.00,East,94,1.0,4.0,93,0.00,,,0.00,0.000000,,2013-04-09 11:32:00,
2013-04-09 07:43:00,49.0,47.0,-100.00,East,94,1.0,4.0,93,0.00,,,0.00,0.000000,,2013-04-09 11:43:00,
2013-04-09 07:52:00,49.0,47.0,-100.00,East,94,1.0,4.0,93,0.00,,,0.00,0.000000,,2013-04-09 11:52:00,
2013-04-09 08:02:00,49.0,47.0,-100.00,East,94,1.0,4.0,93,0.00,,,0.00,0.000000,,2013-04-09 12:02:00,
2013-04-09 08:33:00,49.0,48.0,-100.00,East,83,2.0,3.0,95,0.00,,,0.00,28.000000,,2013-04-09 12:33:00,
2013-04-09 08:43:00,49.0,48.0,-100.00,East,83,2.0,3.0,95,0.00,,,0.00,28.000000,,2013-04-09 12:43:00,
2013-04-09 08:53:00,49.0,48.0,-100.00,East,83,2.0,3.0,95,0.00,,,0.00,28.000000,,2013-04-09 12:53:00,
2013-04-09 09:03:00,49.0,48.0,-100.00,East,83,2.0,3.0,95,0.00,,,0.00,28.000000,,2013-04-09 13:03:00,
2013-04-09 09:33:00,54.0,51.0,-100.00,East,85,2.0,5.0,89,0.00,,,0.00,114.000000,,2013-04-09 13:33:00,
2013-04-09 09:43:00,54.0,51.0,-100.00,East,85,2.0,5.0,89,0.00,,,0.00,114.000000,,2013-04-09 13:43:00,
2013-04-09 09:53:00,54.0,51.0,-100.00,East,85,2.0,5.0,89,0.00,,,0.00,114.000000,,2013-04-09 13:53:00,
2013-04-09 10:03:00,54.0,51.0,-100.00,East,85,2.0,5.0,89,0.00,,,0.00,114.000000,,2013-04-09 14:03:00,
2013-04-09 10:33:00,63.0,54.0,-100.00,East,82,3.0,5.0,73,0.00,,,0.00,325.000000,,2013-04-09 14:33:00,
2013-04-09 10:43:00,63.0,54.0,-100.00,East,82,3.0,5.0,73,0.00,,,0.00,325.000000,,2013-04-09 14:43:00,
2013-04-09 10:52:00,63.0,54.0,-100.00,East,82,3.0,5.0,73,0.00,,,0.00,325.000000,,2013-04-09 14:52:00,
2013-04-09 11:02:00,63.0,54.0,-100.00,East,82,3.0,5.0,73,0.00,,,0.00,325.000000,,2013-04-09 15:02:00,
2013-04-09 11:34:00,74.0,54.0,-100.00,South,175,6.0,12.0,49,0.00,,,0.00,699.000000,,2013-04-09 15:34:00,
2013-04-09 11:44:00,74.0,54.0,-100.00,South,175,6.0,12.0,49,0.00,,,0.00,699.000000,,2013-04-09 15:44:00,
2013-04-09 11:54:00,74.0,54.0,-100.00,South,175,6.0,12.0,49,0.00,,,0.00,699.000000,,2013-04-09 15:54:00,
2013-04-09 12:03:00,74.0,54.0,-100.00,South,175,6.0,12.0,49,0.00,,,0.00,699.000000,,2013-04-09 16:03:00,
2013-04-09 12:34:00,77.0,52.0,-100.00,SW,235,6.0,14.0,42,0.00,,,0.00,877.000000,,2013-04-09 16:34:00,
2013-04-09 12:43:00,77.0,52.0,-100.00,SW,235,6.0,14.0,42,0.00,,,0.00,877.000000,,2013-04-09 16:43:00,
2013-04-09 12:54:00,77.0,52.0,-100.00,SW,235,6.0,14.0,42,0.00,,,0.00,877.000000,,2013-04-09 16:54:00,
2013-04-09 13:02:00,77.0,52.0,-100.00,SW,235,6.0,14.0,42,0.00,,,0.00,877.000000,,2013-04-09 17:02:00,
2013-04-09 13:33:00,80.0,52.0,-100.00,WSW,246,4.0,18.0,38,0.00,,,0.00,985.000000,,2013-04-09 17:33:00,
2013-04-09 13:43:00,80.0,52.0,-100.00,WSW,246,4.0,18.0,38,0.00,,,0.00,985.000000,,2013-04-09 17:43:00,
2013-04-09 13:54:00,80.0,52.0,-100.00,WSW,246,4.0,18.0,38,0.00,,,0.00,985.000000,,2013-04-09 17:54:00,
2013-04-09 14:02:00,80.0,52.0,-100.00,WSW,246,4.0,18.0,38,0.00,,,0.00,985.000000,,2013-04-09 18:02:00,
2013-04-09 14:33:00,79.0,51.0,-100.00,West,261,5.0,12.0,38,0.00,,,0.00,716.000000,,2013-04-09 18:33:00,
2013-04-09 14:43:00,79.0,51.0,-100.00,West,261,5.0,12.0,38,0.00,,,0.00,716.000000,,2013-04-09 18:43:00,
2013-04-09 14:53:00,79.0,51.0,-100.00,West,261,5.0,12.0,38,0.00,,,0.00,716.000000,,2013-04-09 18:53:00,
2013-04-09 15:03:00,79.0,51.0,-100.00,West,261,5.0,12.0,38,0.00,,,0.00,716.000000,,2013-04-09 19:03:00,
2013-04-09 15:53:00,82.0,49.0,-100.00,SSW,207,5.0,13.0,32,0.00,,,0.00,820.000000,,2013-04-09 19:53:00,
2013-04-09 16:03:00,82.0,49.0,-100.00,SSW,207,5.0,13.0,32,0.00,,,0.00,820.000000,,2013-04-09 20:03:00,
2013-04-09 16:34:00,84.0,47.0,-100.00,SSW,204,5.0,15.0,28,0.00,,,0.00,905.000000,,2013-04-09 20:34:00,
2013-04-09 16:44:00,84.0,47.0,-100.00,SSW,204,5.0,15.0,28,0.00,,,0.00,905.000000,,2013-04-09 20:44:00,
2013-04-09 16:53:00,84.0,47.0,-100.00,SSW,204,5.0,15.0,28,0.00,,,0.00,905.000000,,2013-04-09 20:53:00,
2013-04-09 17:03:00,84.0,47.0,-100.00,SSW,204,5.0,15.0,28,0.00,,,0.00,905.000000,,2013-04-09 21:03:00,
2013-04-09 17:33:00,82.0,44.0,-100.00,SW,233,5.0,16.0,26,0.00,,,0.00,696.000000,,2013-04-09 21:33:00,
2013-04-09 17:43:00,82.0,44.0,-100.00,SW,233,5.0,16.0,26,0.00,,,0.00,696.000000,,2013-04-09 21:43:00,
2013-04-09 17:53:00,82.0,44.0,-100.00,SW,233,5.0,16.0,26,0.00,,,0.00,696.000000,,2013-04-09 21:53:00,
2013-04-09 18:03:00,82.0,44.0,-100.00,SW,233,5.0,16.0,26,0.00,,,0.00,696.000000,,2013-04-09 22:03:00,
2013-04-09 18:33:00,80.0,46.0,-100.00,SW,217,6.0,16.0,30,0.00,,,0.00,491.000000,,2013-04-09 22:33:00,
2013-04-09 18:43:00,80.0,46.0,-100.00,SW,217,6.0,16.0,30,0.00,,,0.00,491.000000,,2013-04-09 22:43:00,
2013-04-09 18:54:00,80.0,46.0,-100.00,SW,217,6.0,16.0,30,0.00,,,0.00,491.000000,,2013-04-09 22:54:00,
2013-04-09 19:03:00,80.0,46.0,-100.00,SW,217,6.0,16.0,30,0.00,,,0.00,491.000000,,2013-04-09 23:03:00,
2013-04-09 19:33:00,77.0,48.0,-100.00,South,169,2.0,11.0,36,0.00,,,0.00,171.000000,,2013-04-09 23:33:00,
2013-04-09 19:43:00,77.0,48.0,-100.00,South,169,2.0,11.0,36,0.00,,,0.00,171.000000,,2013-04-09 23:43:00,
2013-04-09 19:53:00,77.0,48.0,-100.00,South,169,2.0,11.0,36,0.00,,,0.00,171.000000,,2013-04-09 23:53:00,
2013-04-09 20:03:00,77.0,48.0,-100.00,South,169,2.0,11.0,36,0.00,,,0.00,171.000000,,2013-04-10 00:03:00,
2013-04-09 20:33:00,75.0,50.0,-100.00,SSW,203,5.0,9.0,41,0.00,,,-99.99,46.000000,,2013-04-10 00:33:00,
2013-04-09 20:43:00,75.0,50.0,-100.00,SSW,203,5.0,9.0,41,0.00,,,-99.99,46.000000,,2013-04-10 00:43:00,
2013-04-09 20:53:00,75.0,50.0,-100.00,SSW,203,5.0,9.0,41,0.00,,,-99.99,46.000000,,2013-04-10 00:53:00,
2013-04-09 21:02:00,75.0,50.0,-100.00,SSW,203,5.0,9.0,41,0.00,,,-99.99,46.000000,,2013-04-10 01:02:00,
2013-04-09 21:33:00,72.0,49.0,-100.00,WSW,242,5.0,10.0,44,0.00,,,0.00,0.000000,,2013-04-10 01:33:00,
2013-04-09 21:43:00,72.0,49.0,-100.00,WSW,242,5.0,10.0,44,0.00,,,0.00,0.000000,,2013-04-10 01:43:00,
2013-04-09 21:53:00,72.0,49.0,-100.00,WSW,242,5.0,10.0,44,0.00,,,0.00,0.000000,,2013-04-10 01:53:00,
2013-04-09 22:03:00,72.0,49.0,-100.00,WSW,242,5.0,10.0,44,0.00,,,0.00,0.000000,,2013-04-10 02:03:00,
2013-04-09 22:33:00,67.0,48.0,-100.00,SSE,155,1.0,7.0,50,0.00,,,0.00,0.000000,,2013-04-10 02:33:00,
2013-04-09 22:43:00,67.0,48.0,-100.00,SSE,155,1.0,7.0,50,0.00,,,0.00,0.000000,,2013-04-10 02:43:00,
2013-04-09 22:53:00,67.0,48.0,-100.00,SSE,155,1.0,7.0,50,0.00,,,0.00,0.000000,,2013-04-10 02:53:00,
2013-04-09 23:03:00,67.0,48.0,-100.00,SSE,155,1.0,7.0,50,0.00,,,0.00,0.000000,,2013-04-10 03:03:00,
2013-04-09 23:33:00,63.0,51.0,-100.00,ENE,66,3.0,6.0,64,0.00,,,0.00,0.000000,,2013-04-10 03:33:00,
2013-04-09 23:43:00,63.0,51.0,-100.00,ENE,66,3.0,6.0,64,0.00,,,0.00,0.000000,,2013-04-10 03:43:00,
2013-04-09 23:53:00,63.0,51.0,-100.00,ENE,66,3.0,6.0,64,0.00,,,0.00,0.000000,,2013-04-10 03:53:00,